Location: Boiro
(42.6475°N, 8.8834°W)
Time: 20:52:31
(UTC+02:00)

CUBEBUG 2 - Visible Passes

Search period start: 22 April 2024 00:00
Search period end: 02 May 2024 00:00
Orbit: 570 x 672 km, 97.8° (Epoch: 21 April)

Date Brightness Start Highest point End Pass type
(mag) Time Alt. Az. Time Alt. Az. Time Alt. Az.
22 Apr ? 03:35:11 10° ENE 03:35:36 11° ENE 03:35:36 11° ENE visible
22 Apr ? 05:09:28 10° N 05:12:48 47° NW 05:12:48 47° NW visible
23 Apr ? 03:51:44 10° NE 03:53:30 17° ENE 03:53:30 17° ENE visible
23 Apr ? 05:27:16 10° N 05:30:42 34° WNW 05:30:42 34° WNW visible
24 Apr ? 04:08:47 10° NE 04:11:23 26° ENE 04:11:23 26° ENE visible
24 Apr ? 05:45:13 10° NNW 05:48:27 23° WNW 05:48:34 23° WNW visible
25 Apr ? 04:26:04 10° NNE 04:29:15 41° ENE 04:29:15 41° ENE visible
25 Apr ? 06:03:25 10° NNW 06:05:51 15° WNW 06:06:26 15° WNW visible
26 Apr ? 04:43:30 10° NNE 04:47:05 64° NE 04:47:05 64° NE visible
26 Apr ? 06:22:37 10° NW 06:23:11 10° WNW 06:23:45 10° WNW visible
27 Apr ? 05:01:02 10° N 05:04:53 65° NW 05:04:53 65° NW visible
28 Apr ? 03:43:35 10° NE 03:45:30 16° E 03:45:30 16° E visible
28 Apr ? 05:18:39 10° N 05:22:35 42° WNW 05:22:41 42° WNW visible
29 Apr ? 04:00:23 10° NE 04:03:16 24° E 04:03:16 24° E visible
29 Apr ? 05:36:24 10° N 05:39:57 28° WNW 05:40:27 27° W visible
30 Apr ? 04:17:28 10° NNE 04:21:00 38° E 04:21:00 38° E visible
30 Apr ? 05:54:19 10° NNW 05:57:16 19° WNW 05:58:12 18° W visible
01 May ? 04:34:43 10° NNE 04:38:44 61° E 04:38:44 61° E visible
01 May ? 06:12:36 10° NW 06:14:31 13° WNW 06:15:55 11° W visible
